Buffalo, NY

12:59 AM EST on January 24, 2018 (GMT -0500)
Buffalo Niagara International

Weather History for KBUF - January, 2012

Change the Weather History Date:

Monday, January 30, 2012

  Actual Average Record
Temperature  
Mean Temperature 27 °F 24 °F  
Max Temperature 31 °F 31 °F 66 °F (2013)
Min Temperature 23 °F 18 °F -3 °F (2003)
Degree Days  
Heating Degree Days 38 41  
Month to date heating degree days 1047 1208  
Since 1 July heating degree days 2972 3623  
Cooling Degree Days 0 0  
Month to date cooling degree days 0 0  
Year to date cooling degree days 0 0  
Moisture  
Dew Point 19 °F    
Average Humidity 66    
Maximum Humidity 81    
Minimum Humidity 50    
Precipitation  
Precipitation 0.01 in 0.09 in 1.34 in (1969)
Month to date precipitation 4.42 3.09  
Year to date precipitation 4.42 3.09  
Snow  
Snow 0.20 in 0.80 in 11.60 in (1966)
Month to date snowfall 20.9 24.6  
Since 1 July snowfall 24.7 60.8  
Snow Depth 4.00 in    
Sea Level Pressure  
Sea Level Pressure 30.16 in    
Wind  
Wind Speed 11 mph (SSW)    
Max Wind Speed 20 mph    
Max Gust Speed 25 mph    
Visibility 7 miles    
Events Snow    
T = Trace of Precipitation, MM = Missing Value Source: NWS Daily Summary

Daily Weather History Graph

Daily Weather History Graph

Search for Another Location

Airport or City:

Trip Planner

Search our weather history database for the weather conditions in past years. The results will help you decide how hot, cold, wet, or windy it might be!

Date:

Astronomy

Jan. 30, 2012 Rise Set
Actual Time 7:32 AM EST 5:24 PM EST
Civil Twilight 7:02 AM EST 5:54 PM EST
Nautical Twilight 6:28 AM EST 6:28 PM EST
Astronomical Twilight 5:54 AM EST 7:02 PM EST
Moon 10:41 AM EST (1/30) 12:19 AM EST (1/30)
Length of Visible Light 10h 52m
Length of Day
9h 52m
Waxing Crescent, 46% of the Moon is Illuminated
Jan 30
Waxing Crescent
Jan 30
First Quarter
Feb 7
Full
Feb 14
Last Quarter
Feb 21
New

Hourly Weather History & Observations

Time (EST) Temp. Windchill Dew Point Humidity Pressure Visibility Wind Dir Wind Speed Gust Speed Precip Events Conditions
12:54 AM 25.0 °F 14.2 °F 17.1 °F 72% 30.13 in 10.0 mi West 11.5 mph - 0.00 in Snow Light Snow
1:54 AM 26.1 °F 15.0 °F 18.0 °F 71% 30.14 in 10.0 mi West 12.7 mph - 0.00 in Snow Light Snow
2:54 AM 25.0 °F 12.6 °F 19.9 °F 81% 30.17 in 4.0 mi West 15.0 mph - 0.00 in Snow Light Snow
3:54 AM 25.0 °F 12.2 °F 17.1 °F 72% 30.18 in 10.0 mi West 16.1 mph 20.7 mph 0.00 in   Overcast
4:54 AM 25.0 °F 12.6 °F 17.1 °F 72% 30.19 in 10.0 mi West 15.0 mph - N/A   Overcast
5:54 AM 24.1 °F 12.0 °F 17.1 °F 75% 30.20 in 10.0 mi West 13.8 mph - 0.00 in Snow Light Snow
6:54 AM 24.1 °F 13.1 °F 16.0 °F 71% 30.22 in 10.0 mi West 11.5 mph - 0.00 in Snow Light Snow
7:54 AM 24.1 °F 12.5 °F 16.0 °F 71% 30.25 in 10.0 mi West 12.7 mph - 0.00 in   Mostly Cloudy
8:54 AM 24.1 °F 15.2 °F 15.1 °F 69% 30.26 in 10.0 mi West 8.1 mph - N/A   Mostly Cloudy
9:54 AM 26.1 °F 16.2 °F 12.9 °F 58% 30.28 in 10.0 mi West 10.4 mph 18.4 mph N/A   Scattered Clouds
10:54 AM 26.6 °F 15.7 °F 10.4 °F 51% 30.25 in 10.0 mi West 12.7 mph - N/A   Scattered Clouds
11:54 AM 28.0 °F 17.0 °F 12.9 °F 53% 30.28 in 10.0 mi West 13.8 mph - N/A   Mostly Cloudy
12:54 PM 28.0 °F 16.5 °F 12.9 °F 53% 30.26 in 10.0 mi WSW 15.0 mph - N/A   Mostly Cloudy
1:54 PM 28.9 °F 20.4 °F 17.1 °F 61% 30.23 in 10.0 mi WSW 9.2 mph 18.4 mph N/A   Mostly Cloudy
2:54 PM 28.9 °F 19.8 °F 19.0 °F 67% 30.22 in 9.0 mi SSW 10.4 mph - 0.00 in Snow Light Snow
3:54 PM 28.9 °F 21.1 °F 17.1 °F 61% 30.20 in 9.0 mi SSW 8.1 mph - 0.00 in Snow Light Snow
4:50 PM 28.4 °F 20.4 °F 19.4 °F 69% 30.15 in 2.5 mi South 8.1 mph - 0.00 in Snow Light Snow
4:54 PM 28.9 °F 19.8 °F 19.9 °F 69% 30.19 in 2.5 mi South 10.4 mph - 0.00 in Snow Light Snow
4:58 PM 28.4 °F 17.5 °F 19.4 °F 69% 30.15 in 1.0 mi South 13.8 mph - 0.00 in Snow Light Snow
5:51 PM 28.4 °F 20.4 °F 21.2 °F 74% 30.12 in 1.0 mi SE 8.1 mph - 0.01 in Snow Light Snow
5:54 PM 28.0 °F 20.0 °F 21.9 °F 78% 30.16 in 1.0 mi SE 8.1 mph - 0.01 in Snow Light Snow
6:18 PM 26.6 °F 17.5 °F 23.0 °F 86% 30.10 in 5.0 mi SE 9.2 mph - 0.00 in Snow Light Snow
6:54 PM 28.0 °F 20.8 °F 23.0 °F 81% 30.14 in 9.0 mi SE 6.9 mph - 0.00 in Snow Light Snow
7:40 PM 28.4 °F 22.2 °F 23.0 °F 80% 30.10 in 1.0 mi ESE 5.8 mph - 0.00 in Snow Light Snow
7:54 PM 28.0 °F 20.0 °F 23.0 °F 81% 30.11 in 1.0 mi ESE 8.1 mph - 0.00 in Snow Light Snow
7:56 PM 28.4 °F 20.4 °F 23.0 °F 80% 30.08 in 3.0 mi East 8.1 mph - 0.00 in Snow Light Snow
8:54 PM 28.9 °F 20.4 °F 23.0 °F 78% 30.07 in 9.0 mi SE 9.2 mph - 0.00 in   Overcast
9:54 PM 30.0 °F 22.4 °F 21.9 °F 72% 30.04 in 10.0 mi SE 8.1 mph - N/A   Overcast
10:54 PM 30.0 °F 22.4 °F 21.0 °F 69% 30.01 in 10.0 mi SE 8.1 mph - N/A   Overcast
11:54 PM 30.9 °F 25.2 °F 21.0 °F 67% 29.99 in 10.0 mi South 5.8 mph - N/A   Mostly Cloudy